Time,TemperatureF,DewpointF,PressureIn,WindDirection,WindDirectionDegrees,WindSpeedMPH,WindSpeedGustMPH,Humidity,HourlyPrecipIn,Conditions,Clouds,dailyrainin,SoftwareType,DateUTC
2013-05-09 00:03:00,60.0,58.0,30.00,South,184,0.0,7.0,93,0.00,,,0.02,,2013-05-09 04:03:00,
2013-05-09 00:12:00,60.0,58.0,30.00,South,184,0.0,7.0,93,0.00,,,0.02,,2013-05-09 04:12:00,
2013-05-09 00:23:00,60.0,58.0,30.00,SSW,213,2.0,10.0,94,0.00,,,0.02,,2013-05-09 04:23:00,
2013-05-09 00:33:00,60.0,58.0,30.00,SE,142,4.0,6.0,94,0.00,,,0.02,,2013-05-09 04:33:00,
2013-05-09 00:43:00,60.0,58.0,30.00,SE,142,4.0,6.0,94,0.00,,,0.02,,2013-05-09 04:43:00,
2013-05-09 00:52:00,60.0,58.0,30.00,South,186,1.0,4.0,94,0.00,,,0.02,,2013-05-09 04:52:00,
2013-05-09 01:02:00,60.0,58.0,30.00,South,183,1.0,4.0,94,0.00,,,0.02,,2013-05-09 05:02:00,
2013-05-09 01:12:00,60.0,58.0,30.00,South,183,1.0,4.0,94,0.00,,,0.02,,2013-05-09 05:12:00,
2013-05-09 01:22:00,60.0,58.0,30.00,South,183,1.0,4.0,94,0.00,,,0.02,,2013-05-09 05:22:00,
2013-05-09 01:32:00,60.0,58.0,29.98,SSE,167,2.0,4.0,94,0.00,,,0.02,,2013-05-09 05:32:00,
2013-05-09 01:42:00,59.0,57.0,29.98,South,178,1.0,5.0,94,0.00,,,0.02,,2013-05-09 05:42:00,
2013-05-09 01:52:00,59.0,57.0,29.98,South,178,1.0,5.0,94,0.00,,,0.02,,2013-05-09 05:52:00,
2013-05-09 02:02:00,59.0,57.0,29.98,South,180,0.0,4.0,94,0.00,,,0.02,,2013-05-09 06:02:00,
2013-05-09 02:12:00,59.0,57.0,29.98,South,180,0.0,4.0,94,0.00,,,0.02,,2013-05-09 06:12:00,
2013-05-09 02:21:00,59.0,57.0,29.97,South,180,1.0,3.0,94,0.00,,,0.02,,2013-05-09 06:21:00,
2013-05-09 02:32:00,59.0,58.0,29.97,SSW,195,2.0,4.0,95,0.00,,,0.02,,2013-05-09 06:32:00,
2013-05-09 02:42:00,59.0,58.0,29.96,SSW,200,0.0,0.0,95,0.00,,,0.02,,2013-05-09 06:42:00,
2013-05-09 02:52:00,59.0,58.0,29.96,SSW,200,0.0,0.0,95,0.00,,,0.02,,2013-05-09 06:52:00,
2013-05-09 03:01:00,59.0,58.0,29.97,SSW,200,0.0,0.0,95,0.00,,,0.02,,2013-05-09 07:01:00,
2013-05-09 03:12:00,59.0,58.0,29.96,SSW,200,0.0,1.0,95,0.00,,,0.02,,2013-05-09 07:12:00,
2013-05-09 03:21:00,59.0,58.0,29.96,SSW,200,0.0,1.0,95,0.00,,,0.02,,2013-05-09 07:21:00,
2013-05-09 03:32:00,59.0,58.0,29.96,SSW,200,0.0,0.0,95,0.00,,,0.02,,2013-05-09 07:32:00,
2013-05-09 03:42:00,59.0,58.0,29.96,SSW,200,0.0,0.0,95,0.00,,,0.02,,2013-05-09 07:42:00,
2013-05-09 03:52:00,59.0,58.0,29.96,SSW,200,0.0,3.0,95,0.00,,,0.02,,2013-05-09 07:52:00,
2013-05-09 04:02:00,58.0,57.0,29.95,SSW,200,0.0,0.0,95,0.00,,,0.02,,2013-05-09 08:02:00,
2013-05-09 04:11:00,58.0,57.0,29.95,SSW,200,0.0,0.0,95,0.00,,,0.02,,2013-05-09 08:11:00,
2013-05-09 04:21:00,58.0,57.0,29.94,SSW,211,1.0,3.0,95,0.00,,,0.02,,2013-05-09 08:21:00,
2013-05-09 04:32:00,58.0,57.0,29.94,NW,318,0.0,1.0,95,0.00,,,0.02,,2013-05-09 08:32:00,
2013-05-09 04:42:00,58.0,57.0,29.94,NW,318,0.0,1.0,95,0.00,,,0.02,,2013-05-09 08:42:00,
2013-05-09 04:51:00,58.0,57.0,29.94,NW,318,0.0,1.0,95,0.00,,,0.02,,2013-05-09 08:51:00,
2013-05-09 05:02:00,58.0,57.0,29.94,NW,318,0.0,1.0,95,0.00,,,0.02,,2013-05-09 09:02:00,
2013-05-09 05:11:00,58.0,57.0,29.94,NW,318,0.0,1.0,95,0.00,,,0.02,,2013-05-09 09:11:00,
2013-05-09 05:21:00,58.0,57.0,29.94,NW,318,0.0,0.0,95,0.00,,,0.02,,2013-05-09 09:21:00,
2013-05-09 05:32:00,58.0,57.0,29.94,NW,318,0.0,1.0,95,0.00,,,0.02,,2013-05-09 09:32:00,
2013-05-09 05:43:00,58.0,57.0,29.94,NW,318,0.0,0.0,95,0.00,,,0.02,,2013-05-09 09:43:00,
2013-05-09 05:52:00,58.0,57.0,29.94,NW,318,0.0,0.0,95,0.00,,,0.02,,2013-05-09 09:52:00,
2013-05-09 06:02:00,58.0,57.0,29.94,NW,323,1.0,2.0,95,0.00,,,0.02,,2013-05-09 10:02:00,
2013-05-09 06:12:00,58.0,57.0,29.93,NW,323,0.0,2.0,95,0.00,,,0.02,,2013-05-09 10:12:00,
2013-05-09 06:22:00,58.0,57.0,29.93,NW,323,0.0,2.0,95,0.00,,,0.02,,2013-05-09 10:22:00,
2013-05-09 06:33:00,58.0,57.0,29.93,NW,323,0.0,1.0,95,0.00,,,0.02,,2013-05-09 10:33:00,
2013-05-09 06:42:00,58.0,57.0,29.93,NW,323,0.0,2.0,95,0.00,,,0.02,,2013-05-09 10:42:00,
2013-05-09 06:52:00,58.0,57.0,29.93,NW,323,0.0,2.0,95,0.00,,,0.02,,2013-05-09 10:52:00,
2013-05-09 07:02:00,58.0,57.0,29.94,NNE,13,0.0,4.0,95,0.00,,,0.02,,2013-05-09 11:02:00,
2013-05-09 07:12:00,58.0,57.0,29.94,NNE,13,0.0,2.0,95,0.00,,,0.02,,2013-05-09 11:12:00,
2013-05-09 07:22:00,58.0,57.0,29.94,NNE,13,0.0,2.0,95,0.00,,,0.02,,2013-05-09 11:22:00,
2013-05-09 07:32:00,58.0,57.0,29.95,NNE,13,0.0,2.0,95,0.00,,,0.02,,2013-05-09 11:32:00,
2013-05-09 07:42:00,58.0,57.0,29.95,NNE,13,0.0,2.0,95,0.00,,,0.02,,2013-05-09 11:42:00,
2013-05-09 07:51:00,58.0,57.0,29.94,NNE,13,0.0,1.0,95,0.00,,,0.02,,2013-05-09 11:51:00,
2013-05-09 08:01:00,58.0,57.0,29.95,NNE,13,0.0,3.0,95,0.00,,,0.02,,2013-05-09 12:01:00,
2013-05-09 08:11:00,58.0,57.0,29.95,NNE,13,2.0,4.0,95,0.00,,,0.02,,2013-05-09 12:11:00,
2013-05-09 08:22:00,58.0,57.0,29.95,NNE,13,2.0,4.0,95,0.00,,,0.02,,2013-05-09 12:22:00,
2013-05-09 08:32:00,58.0,57.0,29.95,NNE,13,0.0,1.0,95,0.00,,,0.02,,2013-05-09 12:32:00,
2013-05-09 08:42:00,59.0,58.0,29.96,NNE,13,0.0,0.0,95,0.00,,,0.02,,2013-05-09 12:42:00,
2013-05-09 08:52:00,59.0,58.0,29.96,NNE,13,0.0,0.0,95,0.00,,,0.02,,2013-05-09 12:52:00,
2013-05-09 09:01:00,59.0,58.0,29.95,NNE,13,0.0,2.0,95,0.00,,,0.02,,2013-05-09 13:01:00,
2013-05-09 09:12:00,59.0,58.0,29.95,NNE,13,0.0,2.0,95,0.00,,,0.02,,2013-05-09 13:12:00,
2013-05-09 09:22:00,59.0,58.0,29.94,NNE,13,0.0,0.0,95,0.00,,,0.02,,2013-05-09 13:22:00,
2013-05-09 09:32:00,60.0,59.0,29.94,NNE,13,0.0,1.0,96,0.00,,,0.02,,2013-05-09 13:32:00,
2013-05-09 09:42:00,60.0,59.0,29.94,NNE,13,0.0,1.0,95,0.00,,,0.02,,2013-05-09 13:42:00,
2013-05-09 09:52:00,60.0,59.0,29.94,NNE,13,0.0,1.0,95,0.00,,,0.02,,2013-05-09 13:52:00,
2013-05-09 10:02:00,61.0,60.0,29.93,NNE,18,0.0,4.0,95,0.00,,,0.02,,2013-05-09 14:02:00,
2013-05-09 10:11:00,61.0,60.0,29.93,NNE,18,0.0,4.0,95,0.00,,,0.02,,2013-05-09 14:11:00,
2013-05-09 10:22:00,61.0,60.0,29.93,NNE,18,0.0,3.0,95,0.00,,,0.02,,2013-05-09 14:22:00,
2013-05-09 10:32:00,62.0,60.0,29.93,NNE,18,0.0,1.0,94,0.00,,,0.02,,2013-05-09 14:32:00,
2013-05-09 10:42:00,62.0,60.0,29.93,SSE,164,0.0,5.0,94,0.00,,,0.02,,2013-05-09 14:42:00,
2013-05-09 10:52:00,62.0,60.0,29.93,SSE,164,0.0,5.0,94,0.00,,,0.02,,2013-05-09 14:52:00,
2013-05-09 11:01:00,62.0,60.0,29.93,ENE,74,0.0,3.0,92,0.00,,,0.02,,2013-05-09 15:01:00,
2013-05-09 11:11:00,62.0,60.0,29.93,ENE,74,0.0,3.0,92,0.00,,,0.02,,2013-05-09 15:11:00,
2013-05-09 11:22:00,63.0,60.0,29.93,ENE,74,0.0,1.0,91,0.00,,,0.02,,2013-05-09 15:22:00,
2013-05-09 11:33:00,62.0,59.0,29.94,WSW,240,2.0,12.0,90,0.00,,,0.02,,2013-05-09 15:33:00,
2013-05-09 11:43:00,62.0,59.0,29.93,SW,230,2.0,5.0,91,0.00,,,0.02,,2013-05-09 15:43:00,
2013-05-09 11:53:00,62.0,59.0,29.93,SW,230,2.0,5.0,91,0.00,,,0.02,,2013-05-09 15:53:00,
2013-05-09 12:03:00,62.0,60.0,29.93,SW,230,2.0,5.0,92,0.00,,,0.02,,2013-05-09 16:03:00,
2013-05-09 12:12:00,62.0,60.0,29.94,SW,230,3.0,5.0,92,0.00,,,0.02,,2013-05-09 16:12:00,
2013-05-09 12:23:00,62.0,60.0,29.94,SW,230,3.0,5.0,92,0.00,,,0.02,,2013-05-09 16:23:00,
2013-05-09 12:33:00,61.0,59.0,29.94,SW,221,0.0,5.0,92,0.00,,,0.01,,2013-05-09 16:33:00,
2013-05-09 12:42:00,60.0,58.0,29.93,SW,221,0.0,1.0,93,0.00,,,0.01,,2013-05-09 16:42:00,
2013-05-09 12:52:00,60.0,58.0,29.93,SW,221,0.0,1.0,93,0.00,,,0.01,,2013-05-09 16:52:00,
2013-05-09 13:02:00,59.0,57.0,29.92,ESE,105,0.0,0.0,93,0.00,,,0.01,,2013-05-09 17:02:00,
2013-05-09 13:12:00,59.0,57.0,29.92,ESE,105,0.0,0.0,93,0.00,,,0.01,,2013-05-09 17:12:00,
2013-05-09 13:21:00,59.0,57.0,29.91,ESE,105,0.0,0.0,93,0.00,,,0.01,,2013-05-09 17:21:00,
2013-05-09 13:32:00,61.0,59.0,29.91,NNE,13,2.0,4.0,94,0.00,,,0.01,,2013-05-09 17:32:00,
2013-05-09 13:42:00,61.0,59.0,29.91,NNE,13,2.0,4.0,94,0.00,,,0.01,,2013-05-09 17:42:00,
2013-05-09 13:55:00,63.0,61.0,29.90,NNE,15,2.0,4.0,94,0.00,,,0.01,,2013-05-09 17:55:00,
2013-05-09 14:01:00,64.0,61.0,29.89,NNE,15,0.0,3.0,89,0.00,,,0.01,,2013-05-09 18:01:00,
2013-05-09 14:12:00,64.0,61.0,29.89,NNE,15,0.0,3.0,89,0.00,,,0.01,,2013-05-09 18:12:00,
2013-05-09 14:21:00,65.0,60.0,29.90,NNE,30,2.0,4.0,85,0.00,,,0.01,,2013-05-09 18:21:00,
2013-05-09 14:32:00,66.0,60.0,29.89,ENE,65,0.0,1.0,81,0.00,,,0.01,,2013-05-09 18:32:00,
2013-05-09 14:42:00,68.0,61.0,29.89,SE,142,4.0,9.0,77,0.00,,,0.01,,2013-05-09 18:42:00,
2013-05-09 14:52:00,68.0,61.0,29.89,SE,142,4.0,9.0,77,0.00,,,0.01,,2013-05-09 18:52:00,
2013-05-09 15:01:00,68.0,59.0,29.88,East,96,1.0,10.0,74,0.00,,,0.01,,2013-05-09 19:01:00,
2013-05-09 15:12:00,68.0,59.0,29.88,East,96,1.0,10.0,74,0.00,,,0.01,,2013-05-09 19:12:00,
2013-05-09 15:21:00,68.0,60.0,29.88,NE,51,1.0,5.0,75,0.00,,,0.01,,2013-05-09 19:21:00,
2013-05-09 15:32:00,67.0,61.0,29.86,ESE,118,0.0,6.0,82,0.00,,,0.01,,2013-05-09 19:32:00,
2013-05-09 15:41:00,64.0,60.0,29.87,SSW,196,3.0,10.0,87,0.00,,,0.01,,2013-05-09 19:41:00,
2013-05-09 15:52:00,64.0,60.0,29.87,SSW,196,3.0,10.0,87,0.00,,,0.01,,2013-05-09 19:52:00,
2013-05-09 16:01:00,63.0,60.0,29.85,SSW,196,0.0,0.0,91,0.00,,,0.01,,2013-05-09 20:01:00,
2013-05-09 16:11:00,63.0,60.0,29.85,SSW,196,0.0,0.0,91,0.00,,,0.01,,2013-05-09 20:11:00,
2013-05-09 16:22:00,64.0,62.0,29.85,NE,39,0.0,3.0,92,0.00,,,0.01,,2013-05-09 20:22:00,
2013-05-09 16:32:00,64.0,62.0,29.85,NE,41,0.0,3.0,92,0.00,,,0.01,,2013-05-09 20:32:00,
2013-05-09 16:42:00,64.0,62.0,29.85,NE,41,0.0,3.0,92,0.00,,,0.01,,2013-05-09 20:42:00,
2013-05-09 16:52:00,64.0,62.0,29.85,NE,41,0.0,3.0,92,0.00,,,0.01,,2013-05-09 20:52:00,
2013-05-09 17:02:00,64.0,62.0,29.85,ESE,107,0.0,1.0,92,0.00,,,0.01,,2013-05-09 21:02:00,
2013-05-09 17:12:00,64.0,62.0,29.85,ESE,107,0.0,1.0,92,0.00,,,0.01,,2013-05-09 21:12:00,
2013-05-09 17:22:00,64.0,62.0,29.85,ESE,107,0.0,1.0,92,0.00,,,0.01,,2013-05-09 21:22:00,
2013-05-09 17:32:00,64.0,62.0,29.85,ESE,107,0.0,0.0,92,0.00,,,0.01,,2013-05-09 21:32:00,
2013-05-09 17:43:00,64.0,62.0,29.85,ESE,107,0.0,0.0,92,0.00,,,0.01,,2013-05-09 21:43:00,
2013-05-09 17:52:00,64.0,62.0,29.85,ESE,107,0.0,0.0,92,0.00,,,0.01,,2013-05-09 21:52:00,
2013-05-09 18:03:00,64.0,62.0,29.85,ESE,107,0.0,0.0,92,0.00,,,0.01,,2013-05-09 22:03:00,